This demonstration page uses our WeatherBlox Daily Observations layout. Learn more.

Left ArrowRight Arrow

Hourly Observations for July 10, 2016

Temp ( °F °C ) Dew Point ( °F °C ) Humidity (%) Winds ( mph kmh ) Pressure ( in mb ) Visibility ( mi km ) Precip ( " mm )
12:58 am 00:58 Clear 76 24.7 72 22.1 86 86 SE 9 15 29.92 1013 10 16 0.00 0.00
1:58 am 01:58 Clear 75 24.1 72 22.4 90 90 SE 9 15 29.89 1012 10 16 0.00 0.00
2:58 am 02:58 Clear 74 23.3 73 22.6 96 96 ESE 7 11 29.88 1012 10 16 0.00 0.00
3:58 am 03:58 Clear 74 23.3 73 22.8 97 97 ESE 9 15 29.89 1012 10 16 0.00 0.00
4:58 am 04:58 Clear 74 23.1 73 22.7 98 98 SE 8 13 29.89 1012 10 16 0.00 0.00
5:58 am 05:58 Clear 74 23.4 73 22.8 96 96 SE 10 17 29.89 1012 10 16 0.00 0.00
6:58 am 06:58 Sunny 75 23.7 74 23.4 98 98 SE 9 15 29.87 1012 10 16 0.00 0.00
7:58 am 07:58 Sunny 76 24.5 75 23.7 95 95 SE 12 19 29.87 1012 10 16 0.00 0.00
8:58 am 08:58 Sunny 80 26.6 75 23.7 84 84 S 10 17 29.86 1011 10 16 0.00 0.00
9:58 am 09:58 Sunny 82 27.9 75 24.1 80 80 S 9 15 29.86 1011 10 16 0.00 0.00
10:58 am 10:58 Sunny 84 28.8 76 24.6 78 78 SE 8 13 29.85 1011 10 16 0.00 0.00
11:58 am 11:58 Mostly Sunny 85 29.2 76 24.7 77 77 E 9 15 29.87 1012 10 16 0.00 0.00
12:58 pm 12:58 Mostly Sunny 87 30.4 77 25.2 74 74 E 14 22 29.86 1011 10 16 0.00 0.00
1:58 pm 13:58 Sunny 88 31.3 77 25.1 70 70 ESE 21 33 29.83 1010 10 16 0.00 0.00
2:58 pm 14:58 Mostly Sunny 89 31.5 76 24.4 66 66 ESE 20 31 29.82 1010 10 16 0.00 0.00
3:58 pm 15:58 Mostly Sunny 89 31.9 76 24.2 64 64 SE 17 28 29.81 1010 10 16 0.00 0.00
4:58 pm 16:58 Mostly Sunny 90 32 76 24.4 64 64 SE 18 30 29.78 1009 10 16 0.00 0.00
5:58 pm 17:58 Sunny 89 31.8 75 23.8 63 63 SE 20 31 29.75 1007 10 16 0.00 0.00
6:58 pm 18:58 Sunny 88 31.1 74 23.1 62 62 SSE 18 30 29.73 1007 10 16 0.00 0.00
7:58 pm 19:58 Sunny 87 30.3 74 23.4 67 67 SSE 14 22 29.73 1007 10 16 0.00 0.00
8:58 pm 20:58 Clear 84 29.1 72 22.4 67 67 SSE 16 26 29.73 1007 10 16 0.00 0.00
9:58 pm 21:58 Clear 83 28.2 72 22 69 69 SE 15 24 29.75 1007 10 16 0.00 0.00
10:58 pm 22:58 Clear 81 27.3 72 22.3 74 74 SE 14 22 29.75 1007 10 16 0.00 0.00
11:58 pm 23:58 Clear 80 26.8 72 22.4 77 77 SSE 14 22 29.75 1007 10 16 0.00 0.00

Powered by AerisWeather